Location: Unspecified
(54.1780°N, 0.0000°E)
Time: 20:26:38
(UTC+00:00)

S-56A Canister/Altair - Pass Details

Date: 06 October 2020
Orbit: 632 x 2500 km, 38.9° (Epoch: 20 October)

Event Time Altitude Azimuth Distance (km) Brightness Sun altitude
Rises 19:10:05 0° 276° (W) 6,140 13.9 -16.4°
Reaches altitude 10° 19:17:42 10° 253° (WSW) 4,915 12.5 -17.5°
Maximum altitude 19:22:25 13° 233° (SW) 4,486 11.9 -18.2°
Drops below altitude 10° 19:26:47 10° 212° (SSW) 4,446 11.6 -18.8°
Sets 19:32:51 0° 186° (S) 5,010 11.6 -19.6°
